Weather in Karabulak

Russia / Republic of Ingushetia     43°18′20″N   44°54′33″E
temp.,
°C
wind,
m/s
gust,
m/s
humid.,
%
clouds,
%
prec.,
mm/h
press.,
hPa
HPBL,
m
7 august, sun
sun700:00+17s118624 0.0 101111
03:00+17sw118294 0.0 101111
06:00+18ne0181100 0.0 101267
09:00+20e237274 0.0 1011522
12:00+24e4560100 0.2 10101376
15:00+24e3561100 0.9 10101082
18:00+22ssw1174100 0.5 101113
21:00+19wsw228191 0.8 101225
8 august, mon
mon800:00+18wsw229076 0.3 101125
03:00+17wsw229247 2.1 101231
06:00+17wsw22900 0.1 101350
09:00+23n126320 0.3 1014824
12:00+26ne3445100 0.8 10132048
15:00+25ese235799 1.6 10131239
18:00+21sw227296 0.4 101440
21:00+19sw227929 0.4 101525
9 august, tue
tue900:00+17sw22850 0.0 101527
03:00+16sw22840 0.0 101527
06:00+18sw22780 0.0 101644
09:00+25e35471 0.0 10151108
12:00+29e45310 0.0 10142026
15:00+30ese442928 0.0 10122544
18:00+27ese483923 0.0 1012480
21:00+20se22602 0.0 101427
10 august, wed
wed1000:00+18s11700 0.0 101314
03:00+17ssw11720 0.0 101213
06:00+18ssw11700 0.0 101220
09:00+26ene33470 0.0 1011718
12:00+31e46320 0.0 10091515
15:00+33e55240 0.0 10072499
18:00+27e510417 0.2 1008481
21:00+20se016287 0.7 100912
11 august, thu
thu1100:00+18sw22720 0.0 100822
03:00+18ssw22710 0.0 100814
06:00+19sw22640 0.0 100841
09:00+28nne114011 0.0 1007619
12:00+33nne21281 0.0 10061425
15:00+35ese11250 0.2 10052127
18:00+30sw34470 0.1 1006128
21:00+23ssw22720 0.7 100816